Location: Middle Street
(51.7167°N, 0.0333°E)
Time: 19:28:12
(UTC+00:00)

Cosmos 1726 Rocket - Pass Details

Date: 20 January 2021
Orbit: 604 x 628 km, 82.5° (Epoch: 27 February)

Event Time Altitude Azimuth Distance (km) Brightness Sun altitude
Rises 17:35:37 0° 351° (N) 2,883 6.9 -10.3°
Reaches altitude 10° 17:37:51 10° 353° (N) 1,977 6.0 -10.6°
Maximum altitude 17:42:13 70° 77° (ENE) 657 3.5 -11.2°
Drops below altitude 10° 17:46:35 10° 162° (SSE) 1,975 6.1 -11.9°
Sets 17:48:48 0° 165° (SSE) 2,880 7.0 -12.2°
